Time,TemperatureF,DewpointF,PressureIn,WindDirection,WindDirectionDegrees,WindSpeedMPH,WindSpeedGustMPH,Humidity,HourlyPrecipIn,Conditions,Clouds,dailyrainin,SoftwareType,DateUTC
2013-03-03 00:00:00,31.9,25.2,29.62,WNW,285,0.0,0.0,76,0.00,,,0.00,WeatherCatV1.10B1784,2013-03-03 05:00:00,
2013-03-03 00:05:00,31.9,25.2,29.62,WNW,285,2.0,3.0,76,0.00,,,0.00,WeatherCatV1.10B1784,2013-03-03 05:05:00,
2013-03-03 00:10:00,31.8,25.1,29.62,WNW,285,0.0,0.0,76,0.00,,,0.00,WeatherCatV1.10B1784,2013-03-03 05:10:00,
2013-03-03 00:15:00,31.8,25.1,29.62,WNW,285,0.0,0.0,76,0.00,,,0.00,WeatherCatV1.10B1784,2013-03-03 05:15:00,
2013-03-03 00:20:00,31.7,25.0,29.62,WNW,285,0.0,0.0,76,0.00,,,0.00,WeatherCatV1.10B1784,2013-03-03 05:20:00,
2013-03-03 00:25:00,31.7,25.0,29.62,WNW,285,0.0,0.0,76,0.00,,,0.00,WeatherCatV1.10B1784,2013-03-03 05:25:00,
2013-03-03 00:30:00,31.7,25.0,29.62,WNW,285,0.0,1.0,76,0.00,,,0.00,WeatherCatV1.10B1784,2013-03-03 05:30:00,
2013-03-03 00:35:00,31.7,25.0,29.62,WNW,285,0.0,0.0,76,0.00,,,0.00,WeatherCatV1.10B1784,2013-03-03 05:35:00,
2013-03-03 00:40:00,31.7,24.7,29.62,WNW,285,0.0,1.0,75,0.00,,,0.00,WeatherCatV1.10B1784,2013-03-03 05:40:00,
2013-03-03 00:45:00,31.7,25.0,29.62,WNW,285,0.0,0.0,76,0.00,,,0.00,WeatherCatV1.10B1784,2013-03-03 05:45:00,
2013-03-03 00:50:00,31.7,25.0,29.62,WNW,285,0.0,0.0,76,0.00,,,0.00,WeatherCatV1.10B1784,2013-03-03 05:50:00,
2013-03-03 00:55:00,31.6,24.9,29.62,WNW,285,0.0,0.0,76,0.00,,,0.00,WeatherCatV1.10B1784,2013-03-03 05:55:00,
2013-03-03 01:00:00,31.6,24.9,29.62,WNW,285,0.0,0.0,76,0.00,,,0.00,WeatherCatV1.10B1784,2013-03-03 06:00:00,
2013-03-03 01:05:00,31.6,25.2,29.62,WNW,285,0.0,0.0,77,0.00,,,0.00,WeatherCatV1.10B1784,2013-03-03 06:05:00,
2013-03-03 01:10:00,31.6,25.2,29.62,WNW,285,0.0,0.0,77,0.00,,,0.00,WeatherCatV1.10B1784,2013-03-03 06:10:00,
2013-03-03 01:15:00,31.6,25.5,29.62,WNW,285,0.0,0.0,78,0.00,,,0.00,WeatherCatV1.10B1784,2013-03-03 06:15:00,
2013-03-03 01:20:00,31.5,25.4,29.62,WNW,285,0.0,4.0,78,0.00,,,0.00,WeatherCatV1.10B1784,2013-03-03 06:20:00,
2013-03-03 01:25:00,31.4,25.3,29.62,WNW,285,1.0,2.0,78,0.00,,,0.00,WeatherCatV1.10B1784,2013-03-03 06:25:00,
2013-03-03 01:30:00,31.4,25.3,29.62,WNW,285,0.0,0.0,78,0.00,,,0.00,WeatherCatV1.10B1784,2013-03-03 06:30:00,
2013-03-03 01:35:00,31.3,25.3,29.62,WNW,285,0.0,3.0,78,0.00,,,0.00,WeatherCatV1.10B1784,2013-03-03 06:35:00,
2013-03-03 01:40:00,31.2,25.2,29.62,WNW,285,0.0,1.0,78,0.00,,,0.00,WeatherCatV1.10B1784,2013-03-03 06:40:00,
2013-03-03 01:45:00,31.1,25.1,29.61,WNW,285,0.0,0.0,78,0.00,,,0.00,WeatherCatV1.10B1784,2013-03-03 06:45:00,
2013-03-03 01:50:00,31.1,25.1,29.61,WNW,285,0.0,0.0,78,0.00,,,0.00,WeatherCatV1.10B1784,2013-03-03 06:50:00,
2013-03-03 01:55:00,31.1,25.4,29.61,WNW,285,0.0,1.0,79,0.00,,,0.00,WeatherCatV1.10B1784,2013-03-03 06:55:00,
2013-03-03 02:00:00,31.0,25.0,29.61,WNW,285,0.0,1.0,78,0.00,,,0.00,WeatherCatV1.10B1784,2013-03-03 07:00:00,
2013-03-03 02:05:00,30.9,25.2,29.61,WNW,285,0.0,0.0,79,0.00,,,0.00,WeatherCatV1.10B1784,2013-03-03 07:05:00,
2013-03-03 02:10:00,30.9,24.9,29.60,WNW,285,1.0,5.0,78,0.00,,,0.00,WeatherCatV1.10B1784,2013-03-03 07:10:00,
2013-03-03 02:15:00,30.9,24.9,29.61,WNW,285,0.0,1.0,78,0.00,,,0.00,WeatherCatV1.10B1784,2013-03-03 07:15:00,
2013-03-03 02:20:00,30.8,24.8,29.60,WNW,285,0.0,3.0,78,0.00,,,0.00,WeatherCatV1.10B1784,2013-03-03 07:20:00,
2013-03-03 02:25:00,30.8,24.8,29.60,WNW,285,0.0,0.0,78,0.00,,,0.00,WeatherCatV1.10B1784,2013-03-03 07:25:00,
2013-03-03 02:30:00,30.8,24.8,29.60,WNW,285,0.0,2.0,78,0.00,,,0.00,WeatherCatV1.10B1784,2013-03-03 07:30:00,
2013-03-03 02:35:00,30.8,24.8,29.60,WNW,285,0.0,0.0,78,0.00,,,0.00,WeatherCatV1.10B1784,2013-03-03 07:35:00,
2013-03-03 02:40:00,30.7,25.0,29.60,WNW,285,2.0,4.0,79,0.00,,,0.00,WeatherCatV1.10B1784,2013-03-03 07:40:00,
2013-03-03 02:45:00,30.7,25.0,29.60,WNW,285,0.0,0.0,79,0.00,,,0.00,WeatherCatV1.10B1784,2013-03-03 07:45:00,
2013-03-03 02:50:00,30.6,24.6,29.60,WNW,285,1.0,4.0,78,0.00,,,0.00,WeatherCatV1.10B1784,2013-03-03 07:50:00,
2013-03-03 02:55:00,30.6,24.9,29.60,WNW,285,1.0,4.0,79,0.00,,,0.00,WeatherCatV1.10B1784,2013-03-03 07:55:00,
2013-03-03 03:00:00,30.6,24.9,29.60,WNW,286,0.0,0.0,79,0.00,,,0.00,WeatherCatV1.10B1784,2013-03-03 08:00:00,
2013-03-03 03:02:00,30.5,24.8,29.60,WNW,286,0.0,0.0,79,0.00,,,0.00,WeatherCatV1.10B1784,2013-03-03 08:02:00,
2013-03-03 03:07:00,30.5,24.8,29.60,WNW,286,0.0,0.0,79,0.00,,,0.00,WeatherCatV1.10B1784,2013-03-03 08:07:00,
2013-03-03 03:12:00,30.5,24.8,29.60,WNW,286,1.0,1.0,79,0.00,,,0.00,WeatherCatV1.10B1784,2013-03-03 08:12:00,
2013-03-03 03:17:00,30.4,25.0,29.60,WNW,286,0.0,0.0,80,0.00,,,0.00,WeatherCatV1.10B1784,2013-03-03 08:17:00,
2013-03-03 03:22:00,30.4,24.7,29.60,WNW,286,0.0,1.0,79,0.00,,,0.00,WeatherCatV1.10B1784,2013-03-03 08:22:00,
2013-03-03 03:27:00,30.3,24.6,29.60,WNW,286,0.0,0.0,79,0.00,,,0.00,WeatherCatV1.10B1784,2013-03-03 08:27:00,
2013-03-03 03:32:00,30.3,24.6,29.60,WNW,286,0.0,3.0,79,0.00,,,0.00,WeatherCatV1.10B1784,2013-03-03 08:32:00,
2013-03-03 03:37:00,30.3,24.9,29.60,WNW,286,0.0,0.0,80,0.00,,,0.00,WeatherCatV1.10B1784,2013-03-03 08:37:00,
2013-03-03 03:42:00,30.3,24.6,29.60,WNW,286,0.0,0.0,79,0.00,,,0.00,WeatherCatV1.10B1784,2013-03-03 08:42:00,
2013-03-03 03:47:00,30.2,24.5,29.60,WNW,286,0.0,0.0,79,0.00,,,0.00,WeatherCatV1.10B1784,2013-03-03 08:47:00,
2013-03-03 03:52:00,30.2,24.5,29.60,WNW,286,0.0,0.0,79,0.00,,,0.00,WeatherCatV1.10B1784,2013-03-03 08:52:00,
2013-03-03 03:57:00,30.2,24.5,29.60,WNW,286,4.0,4.0,79,0.00,,,0.00,WeatherCatV1.10B1784,2013-03-03 08:57:00,
2013-03-03 04:02:00,30.1,24.4,29.59,WNW,286,0.0,0.0,79,0.00,,,0.00,WeatherCatV1.10B1784,2013-03-03 09:02:00,
2013-03-03 04:07:00,30.1,24.4,29.59,WNW,286,0.0,4.0,79,0.00,,,0.00,WeatherCatV1.10B1784,2013-03-03 09:07:00,
2013-03-03 04:12:00,30.0,24.3,29.59,WNW,286,0.0,4.0,79,0.00,,,0.00,WeatherCatV1.10B1784,2013-03-03 09:12:00,
2013-03-03 04:17:00,30.0,24.3,29.60,WNW,286,0.0,0.0,79,0.00,,,0.00,WeatherCatV1.10B1784,2013-03-03 09:17:00,
2013-03-03 04:22:00,30.0,24.3,29.60,WNW,286,0.0,0.0,79,0.00,,,0.00,WeatherCatV1.10B1784,2013-03-03 09:22:00,
2013-03-03 04:27:00,29.9,24.2,29.60,WNW,286,0.0,2.0,79,0.00,,,0.00,WeatherCatV1.10B1784,2013-03-03 09:27:00,
2013-03-03 04:32:00,29.9,24.2,29.59,WNW,286,0.0,0.0,79,0.00,,,0.00,WeatherCatV1.10B1784,2013-03-03 09:32:00,
2013-03-03 04:37:00,29.8,24.1,29.59,WNW,286,2.0,3.0,79,0.00,,,0.00,WeatherCatV1.10B1784,2013-03-03 09:37:00,
2013-03-03 04:42:00,29.8,24.1,29.59,WNW,286,0.0,5.0,79,0.00,,,0.00,WeatherCatV1.10B1784,2013-03-03 09:42:00,
2013-03-03 04:47:00,29.8,23.8,29.60,WNW,286,0.0,5.0,78,0.00,,,0.00,WeatherCatV1.10B1784,2013-03-03 09:47:00,
2013-03-03 04:52:00,29.8,24.1,29.60,WNW,286,0.0,3.0,79,0.00,,,0.00,WeatherCatV1.10B1784,2013-03-03 09:52:00,
2013-03-03 04:57:00,29.7,23.7,29.60,WNW,286,0.0,0.0,78,0.00,,,0.00,WeatherCatV1.10B1784,2013-03-03 09:57:00,
2013-03-03 05:02:00,29.7,24.0,29.60,WNW,286,1.0,1.0,79,0.00,,,0.00,WeatherCatV1.10B1784,2013-03-03 10:02:00,
2013-03-03 05:07:00,29.7,24.0,29.60,WNW,286,0.0,0.0,79,0.00,,,0.00,WeatherCatV1.10B1784,2013-03-03 10:07:00,
2013-03-03 05:12:00,29.7,24.0,29.60,WNW,286,0.0,0.0,79,0.00,,,0.00,WeatherCatV1.10B1784,2013-03-03 10:12:00,
2013-03-03 05:17:00,29.7,23.7,29.60,WNW,286,0.0,2.0,78,0.00,,,0.00,WeatherCatV1.10B1784,2013-03-03 10:17:00,
2013-03-03 05:22:00,29.7,24.0,29.60,WNW,286,0.0,0.0,79,0.00,,,0.00,WeatherCatV1.10B1784,2013-03-03 10:22:00,
2013-03-03 05:27:00,29.6,23.9,29.60,WNW,286,0.0,0.0,79,0.00,,,0.00,WeatherCatV1.10B1784,2013-03-03 10:27:00,
2013-03-03 05:32:00,29.6,23.9,29.60,WNW,286,0.0,0.0,79,0.00,,,0.00,WeatherCatV1.10B1784,2013-03-03 10:32:00,
2013-03-03 05:37:00,29.6,23.6,29.60,WNW,286,1.0,5.0,78,0.00,,,0.00,WeatherCatV1.10B1784,2013-03-03 10:37:00,
2013-03-03 05:42:00,29.6,23.6,29.60,WNW,286,1.0,2.0,78,0.00,,,0.00,WeatherCatV1.10B1784,2013-03-03 10:42:00,
2013-03-03 05:47:00,29.6,23.6,29.60,WNW,286,0.0,0.0,78,0.00,,,0.00,WeatherCatV1.10B1784,2013-03-03 10:47:00,
2013-03-03 05:52:00,29.6,23.6,29.60,WNW,286,0.0,0.0,78,0.00,,,0.00,WeatherCatV1.10B1784,2013-03-03 10:52:00,
2013-03-03 05:57:00,29.5,23.5,29.60,WNW,286,0.0,3.0,78,0.00,,,0.00,WeatherCatV1.10B1784,2013-03-03 10:57:00,
2013-03-03 06:02:00,29.5,23.5,29.60,WNW,286,0.0,0.0,78,0.00,,,0.00,WeatherCatV1.10B1784,2013-03-03 11:02:00,
2013-03-03 06:07:00,29.5,23.5,29.60,WNW,286,0.0,0.0,78,0.00,,,0.00,WeatherCatV1.10B1784,2013-03-03 11:07:00,
2013-03-03 06:12:00,29.4,23.4,29.60,WNW,286,0.0,0.0,78,0.00,,,0.00,WeatherCatV1.10B1784,2013-03-03 11:12:00,
2013-03-03 06:17:00,29.4,23.4,29.60,WNW,286,0.0,2.0,78,0.00,,,0.00,WeatherCatV1.10B1784,2013-03-03 11:17:00,
2013-03-03 06:22:00,29.4,23.4,29.60,WNW,286,0.0,2.0,78,0.00,,,0.00,WeatherCatV1.10B1784,2013-03-03 11:22:00,
2013-03-03 06:27:00,29.4,23.4,29.60,WNW,286,0.0,5.0,78,0.00,,,0.00,WeatherCatV1.10B1784,2013-03-03 11:27:00,
2013-03-03 06:32:00,29.4,23.4,29.60,WNW,286,0.0,2.0,78,0.00,,,0.00,WeatherCatV1.10B1784,2013-03-03 11:32:00,
2013-03-03 06:37:00,29.4,23.4,29.60,WNW,296,0.0,3.0,78,0.00,,,0.00,WeatherCatV1.10B1784,2013-03-03 11:37:00,
2013-03-03 06:42:00,29.4,23.4,29.61,WNW,296,0.0,0.0,78,0.00,,,0.00,WeatherCatV1.10B1784,2013-03-03 11:42:00,
2013-03-03 06:47:00,29.4,23.4,29.61,WNW,296,1.0,3.0,78,0.00,,,0.00,WeatherCatV1.10B1784,2013-03-03 11:47:00,
2013-03-03 06:52:00,29.4,23.4,29.61,WNW,296,0.0,0.0,78,0.00,,,0.00,WeatherCatV1.10B1784,2013-03-03 11:52:00,
2013-03-03 06:57:00,29.5,23.8,29.61,WNW,296,0.0,0.0,79,0.00,,,0.00,WeatherCatV1.10B1784,2013-03-03 11:57:00,
2013-03-03 07:02:00,29.6,23.6,29.61,WNW,296,0.0,2.0,78,0.00,,,0.00,WeatherCatV1.10B1784,2013-03-03 12:02:00,
2013-03-03 07:07:00,29.6,23.6,29.61,NNW,333,0.0,7.0,78,0.00,,,0.00,WeatherCatV1.10B1784,2013-03-03 12:07:00,
2013-03-03 07:12:00,29.6,23.9,29.61,NNW,333,0.0,3.0,79,0.00,,,0.00,WeatherCatV1.10B1784,2013-03-03 12:12:00,
2013-03-03 07:17:00,29.7,24.3,29.61,NNW,333,0.0,1.0,80,0.00,,,0.00,WeatherCatV1.10B1784,2013-03-03 12:17:00,
2013-03-03 07:22:00,29.6,23.9,29.61,NNW,332,1.0,4.0,79,0.00,,,0.00,WeatherCatV1.10B1784,2013-03-03 12:22:00,
2013-03-03 07:27:00,29.4,24.3,29.61,NNW,332,0.0,4.0,81,0.00,,,0.00,WeatherCatV1.10B1784,2013-03-03 12:27:00,
2013-03-03 07:32:00,29.4,24.6,29.61,NNW,332,4.0,4.0,82,0.00,,,0.00,WeatherCatV1.10B1784,2013-03-03 12:32:00,
2013-03-03 07:37:00,29.4,24.6,29.61,NNW,329,3.0,3.0,82,0.00,,,0.00,WeatherCatV1.10B1784,2013-03-03 12:37:00,
2013-03-03 07:42:00,29.5,24.4,29.61,NW,318,0.0,3.0,81,0.00,,,0.00,WeatherCatV1.10B1784,2013-03-03 12:42:00,
2013-03-03 07:47:00,29.6,24.5,29.61,NW,317,0.0,3.0,81,0.00,,,0.00,WeatherCatV1.10B1784,2013-03-03 12:47:00,
2013-03-03 07:52:00,29.8,24.7,29.61,NW,317,0.0,1.0,81,0.00,,,0.00,WeatherCatV1.10B1784,2013-03-03 12:52:00,
2013-03-03 07:57:00,30.0,24.9,29.61,NW,318,1.0,4.0,81,0.00,,,0.00,WeatherCatV1.10B1784,2013-03-03 12:57:00,
2013-03-03 08:02:00,30.1,24.7,29.61,NW,318,0.0,5.0,80,0.00,,,0.00,WeatherCatV1.10B1784,2013-03-03 13:02:00,
2013-03-03 08:07:00,30.3,24.9,29.61,NW,318,2.0,3.0,80,0.00,,,0.00,WeatherCatV1.10B1784,2013-03-03 13:07:00,
2013-03-03 08:12:00,30.4,24.7,29.61,NW,322,1.0,4.0,79,0.00,,,0.00,WeatherCatV1.10B1784,2013-03-03 13:12:00,
2013-03-03 08:17:00,30.3,24.6,29.61,NW,322,0.0,4.0,79,0.00,,,0.00,WeatherCatV1.10B1784,2013-03-03 13:17:00,
2013-03-03 08:22:00,30.5,25.1,29.61,NW,322,0.0,2.0,80,0.00,,,0.00,WeatherCatV1.10B1784,2013-03-03 13:22:00,
2013-03-03 08:27:00,30.5,24.8,29.61,NW,323,0.0,7.0,79,0.00,,,0.00,WeatherCatV1.10B1784,2013-03-03 13:27:00,
2013-03-03 08:32:00,30.5,25.1,29.61,NW,323,0.0,2.0,80,0.00,,,0.00,WeatherCatV1.10B1784,2013-03-03 13:32:00,
2013-03-03 08:37:00,30.7,25.3,29.61,NW,322,0.0,0.0,80,0.00,,,0.00,WeatherCatV1.10B1784,2013-03-03 13:37:00,
2013-03-03 08:42:00,31.0,25.6,29.61,NW,317,0.0,6.0,80,0.00,,,0.00,WeatherCatV1.10B1784,2013-03-03 13:42:00,
2013-03-03 08:47:00,31.0,25.3,29.61,NW,317,4.0,4.0,79,0.00,,,0.00,WeatherCatV1.10B1784,2013-03-03 13:47:00,
2013-03-03 08:52:00,31.0,25.3,29.61,NW,315,4.0,5.0,79,0.00,,,0.00,WeatherCatV1.10B1784,2013-03-03 13:52:00,
2013-03-03 08:57:00,31.0,25.3,29.61,WNW,286,0.0,4.0,79,0.00,,,0.00,WeatherCatV1.10B1784,2013-03-03 13:57:00,
2013-03-03 09:02:00,31.2,25.5,29.61,WNW,291,0.0,2.0,79,0.00,,,0.00,WeatherCatV1.10B1784,2013-03-03 14:02:00,
2013-03-03 09:07:00,31.4,25.7,29.61,WNW,292,4.0,6.0,79,0.00,,,0.00,WeatherCatV1.10B1784,2013-03-03 14:07:00,
2013-03-03 09:12:00,31.6,25.8,29.61,WNW,292,0.0,4.0,79,0.00,,,0.00,WeatherCatV1.10B1784,2013-03-03 14:12:00,
2013-03-03 09:17:00,31.9,26.1,29.61,WNW,292,0.0,3.0,79,0.00,,,0.00,WeatherCatV1.10B1784,2013-03-03 14:17:00,
2013-03-03 09:22:00,32.1,26.0,29.60,WNW,292,0.0,4.0,78,0.00,,,0.00,WeatherCatV1.10B1784,2013-03-03 14:22:00,
2013-03-03 09:27:00,32.3,26.2,29.61,WNW,292,1.0,1.0,78,0.00,,,0.00,WeatherCatV1.10B1784,2013-03-03 14:27:00,
2013-03-03 09:32:00,32.5,26.1,29.60,WNW,292,0.0,2.0,77,0.00,,,0.00,WeatherCatV1.10B1784,2013-03-03 14:32:00,
2013-03-03 09:37:00,32.7,26.3,29.60,WNW,292,0.0,4.0,77,0.00,,,0.00,WeatherCatV1.10B1784,2013-03-03 14:37:00,
2013-03-03 09:42:00,32.8,26.4,29.60,WNW,292,0.0,3.0,77,0.00,,,0.00,WeatherCatV1.10B1784,2013-03-03 14:42:00,
2013-03-03 09:47:00,33.2,26.8,29.60,WNW,292,3.0,3.0,77,0.00,,,0.00,WeatherCatV1.10B1784,2013-03-03 14:47:00,
2013-03-03 09:52:00,33.3,26.6,29.60,WNW,292,0.0,1.0,76,0.00,,,0.00,WeatherCatV1.10B1784,2013-03-03 14:52:00,
2013-03-03 09:57:00,33.6,26.5,29.59,WNW,292,0.0,0.0,75,0.00,,,0.00,WeatherCatV1.10B1784,2013-03-03 14:57:00,
2013-03-03 10:02:00,33.7,26.6,29.59,WNW,292,2.0,4.0,75,0.00,,,0.00,WeatherCatV1.10B1784,2013-03-03 15:02:00,
2013-03-03 10:07:00,33.6,26.5,29.59,WNW,292,0.0,2.0,75,0.00,,,0.00,WeatherCatV1.10B1784,2013-03-03 15:07:00,
2013-03-03 10:12:00,33.7,27.0,29.59,WNW,292,0.0,3.0,76,0.00,,,0.00,WeatherCatV1.10B1784,2013-03-03 15:12:00,
2013-03-03 10:17:00,33.7,27.6,29.59,WNW,292,0.0,0.0,78,0.00,,,0.00,WeatherCatV1.10B1784,2013-03-03 15:17:00,
2013-03-03 10:22:00,33.8,27.7,29.59,WNW,292,0.0,1.0,78,0.00,,,0.00,WeatherCatV1.10B1784,2013-03-03 15:22:00,
2013-03-03 10:27:00,33.8,27.7,29.59,WNW,292,1.0,2.0,78,0.00,,,0.00,WeatherCatV1.10B1784,2013-03-03 15:27:00,
2013-03-03 10:32:00,33.7,27.6,29.59,WNW,288,5.0,7.0,78,0.00,,,0.00,WeatherCatV1.10B1784,2013-03-03 15:32:00,
2013-03-03 10:37:00,33.7,27.6,29.59,WNW,288,0.0,0.0,78,0.00,,,0.00,WeatherCatV1.10B1784,2013-03-03 15:37:00,
2013-03-03 10:42:00,34.0,27.9,29.59,WNW,288,0.0,1.0,78,0.00,,,0.00,WeatherCatV1.10B1784,2013-03-03 15:42:00,
2013-03-03 10:47:00,34.4,28.3,29.59,WNW,288,0.0,1.0,78,0.00,,,0.00,WeatherCatV1.10B1784,2013-03-03 15:47:00,
2013-03-03 10:52:00,34.5,27.7,29.59,WNW,288,0.0,4.0,76,0.00,,,0.00,WeatherCatV1.10B1784,2013-03-03 15:52:00,
2013-03-03 10:57:00,34.4,27.6,29.59,WNW,288,3.0,4.0,76,0.00,,,0.00,WeatherCatV1.10B1784,2013-03-03 15:57:00,
2013-03-03 11:02:00,34.1,27.3,29.58,WNW,288,1.0,2.0,76,0.00,,,0.00,WeatherCatV1.10B1784,2013-03-03 16:02:00,
2013-03-03 11:07:00,34.0,27.6,29.59,WNW,287,2.0,3.0,77,0.00,,,0.00,WeatherCatV1.10B1784,2013-03-03 16:07:00,
2013-03-03 11:12:00,34.3,27.5,29.58,WNW,287,0.0,3.0,76,0.00,,,0.00,WeatherCatV1.10B1784,2013-03-03 16:12:00,
2013-03-03 11:17:00,34.5,28.0,29.58,WNW,287,0.0,4.0,77,0.00,,,0.00,WeatherCatV1.10B1784,2013-03-03 16:17:00,
2013-03-03 11:22:00,34.8,28.0,29.58,WNW,285,3.0,5.0,76,0.00,,,0.00,WeatherCatV1.10B1784,2013-03-03 16:22:00,
2013-03-03 11:27:00,35.1,28.3,29.58,WNW,285,0.0,1.0,76,0.00,,,0.00,WeatherCatV1.10B1784,2013-03-03 16:27:00,
2013-03-03 11:32:00,35.1,28.0,29.58,WSW,252,2.0,6.0,75,0.00,,,0.00,WeatherCatV1.10B1784,2013-03-03 16:32:00,
2013-03-03 11:37:00,35.2,28.1,29.58,WSW,252,1.0,4.0,75,0.00,,,0.00,WeatherCatV1.10B1784,2013-03-03 16:37:00,
2013-03-03 11:42:00,35.3,28.2,29.58,West,262,0.0,4.0,75,0.00,,,0.00,WeatherCatV1.10B1784,2013-03-03 16:42:00,
2013-03-03 11:47:00,35.7,28.6,29.58,West,262,0.0,3.0,75,0.00,,,0.00,WeatherCatV1.10B1784,2013-03-03 16:47:00,
2013-03-03 11:52:00,35.7,27.9,29.57,West,262,0.0,3.0,73,0.00,,,0.00,WeatherCatV1.10B1784,2013-03-03 16:52:00,
2013-03-03 11:57:00,35.9,28.4,29.57,West,262,0.0,3.0,74,0.00,,,0.00,WeatherCatV1.10B1784,2013-03-03 16:57:00,
2013-03-03 12:02:00,35.7,27.9,29.57,West,262,0.0,1.0,73,0.00,,,0.00,WeatherCatV1.10B1784,2013-03-03 17:02:00,
2013-03-03 12:07:00,35.9,28.1,29.57,West,262,0.0,1.0,73,0.00,,,0.00,WeatherCatV1.10B1784,2013-03-03 17:07:00,
2013-03-03 12:12:00,35.7,27.9,29.57,West,267,0.0,0.0,73,0.00,,,0.00,WeatherCatV1.10B1784,2013-03-03 17:12:00,
2013-03-03 12:17:00,35.8,28.3,29.57,West,267,0.0,5.0,74,0.00,,,0.00,WeatherCatV1.10B1784,2013-03-03 17:17:00,
2013-03-03 12:22:00,35.9,28.4,29.57,West,267,5.0,5.0,74,0.00,,,0.00,WeatherCatV1.10B1784,2013-03-03 17:22:00,
2013-03-03 12:27:00,36.0,28.2,29.57,West,267,1.0,1.0,73,0.00,,,0.00,WeatherCatV1.10B1784,2013-03-03 17:27:00,
2013-03-03 12:32:00,36.2,28.4,29.56,WSW,257,3.0,6.0,73,0.00,,,0.00,WeatherCatV1.10B1784,2013-03-03 17:32:00,
2013-03-03 12:37:00,35.9,28.1,29.56,WSW,257,1.0,5.0,73,0.00,,,0.00,WeatherCatV1.10B1784,2013-03-03 17:37:00,
2013-03-03 12:42:00,36.1,28.3,29.56,WSW,257,3.0,4.0,73,0.00,,,0.00,WeatherCatV1.10B1784,2013-03-03 17:42:00,
2013-03-03 12:47:00,36.1,28.3,29.56,WSW,257,2.0,4.0,73,0.00,,,0.00,WeatherCatV1.10B1784,2013-03-03 17:47:00,
2013-03-03 12:52:00,36.2,28.7,29.55,WSW,257,0.0,0.0,74,0.00,,,0.00,WeatherCatV1.10B1784,2013-03-03 17:52:00,
2013-03-03 12:57:00,36.5,28.3,29.55,WSW,257,0.0,2.0,72,0.00,,,0.00,WeatherCatV1.10B1784,2013-03-03 17:57:00,
2013-03-03 13:02:00,36.5,28.7,29.56,WSW,257,0.0,3.0,73,0.00,,,0.00,WeatherCatV1.10B1784,2013-03-03 18:02:00,
2013-03-03 13:07:00,36.7,28.9,29.55,WSW,257,0.0,3.0,73,0.00,,,0.00,WeatherCatV1.10B1784,2013-03-03 18:07:00,
2013-03-03 13:12:00,36.6,28.8,29.55,West,262,0.0,3.0,73,0.00,,,0.00,WeatherCatV1.10B1784,2013-03-03 18:12:00,
2013-03-03 13:17:00,36.6,28.8,29.55,West,262,0.0,2.0,73,0.00,,,0.00,WeatherCatV1.10B1784,2013-03-03 18:17:00,
2013-03-03 13:22:00,36.6,28.8,29.55,West,262,1.0,4.0,73,0.00,,,0.00,WeatherCatV1.10B1784,2013-03-03 18:22:00,
2013-03-03 13:27:00,36.6,28.8,29.55,West,262,4.0,4.0,73,0.00,,,0.00,WeatherCatV1.10B1784,2013-03-03 18:27:00,
2013-03-03 13:32:00,36.5,28.7,29.55,West,262,0.0,3.0,73,0.00,,,0.00,WeatherCatV1.10B1784,2013-03-03 18:32:00,
2013-03-03 13:37:00,36.9,29.4,29.55,West,262,2.0,5.0,74,0.00,,,0.00,WeatherCatV1.10B1784,2013-03-03 18:37:00,
2013-03-03 13:42:00,37.0,29.5,29.55,West,262,0.0,3.0,74,0.00,,,0.00,WeatherCatV1.10B1784,2013-03-03 18:42:00,
2013-03-03 13:47:00,37.2,29.7,29.55,West,262,2.0,4.0,74,0.00,,,0.00,WeatherCatV1.10B1784,2013-03-03 18:47:00,
2013-03-03 13:52:00,36.6,30.1,29.55,West,262,0.0,3.0,77,0.00,,,0.00,WeatherCatV1.10B1784,2013-03-03 18:52:00,
2013-03-03 13:57:00,36.0,29.8,29.55,West,262,1.0,5.0,78,0.00,,,0.00,WeatherCatV1.10B1784,2013-03-03 18:57:00,
2013-03-03 14:02:00,36.0,29.8,29.54,West,262,0.0,1.0,78,0.00,,,0.00,WeatherCatV1.10B1784,2013-03-03 19:02:00,
2013-03-03 14:07:00,35.9,29.4,29.54,West,262,0.0,4.0,77,0.00,,,0.00,WeatherCatV1.10B1784,2013-03-03 19:07:00,
2013-03-03 14:12:00,36.1,29.6,29.54,West,262,4.0,5.0,77,0.00,,,0.00,WeatherCatV1.10B1784,2013-03-03 19:12:00,
2013-03-03 14:17:00,36.1,29.9,29.55,West,262,2.0,3.0,78,0.00,,,0.00,WeatherCatV1.10B1784,2013-03-03 19:17:00,
2013-03-03 14:22:00,36.1,29.9,29.54,West,262,1.0,4.0,78,0.00,,,0.00,WeatherCatV1.10B1784,2013-03-03 19:22:00,
2013-03-03 14:27:00,35.8,29.9,29.54,West,262,0.0,2.0,79,0.00,,,0.00,WeatherCatV1.10B1784,2013-03-03 19:27:00,
2013-03-03 14:32:00,35.7,29.8,29.54,West,262,2.0,6.0,79,0.00,,,0.00,WeatherCatV1.10B1784,2013-03-03 19:32:00,
2013-03-03 14:37:00,35.3,29.8,29.55,West,262,0.0,4.0,80,0.00,,,0.00,WeatherCatV1.10B1784,2013-03-03 19:37:00,
2013-03-03 14:42:00,35.2,30.0,29.54,West,262,1.0,4.0,81,0.00,,,0.00,WeatherCatV1.10B1784,2013-03-03 19:42:00,
2013-03-03 14:47:00,35.1,29.6,29.54,West,262,1.0,5.0,80,0.00,,,0.00,WeatherCatV1.10B1784,2013-03-03 19:47:00,
2013-03-03 14:52:00,35.3,29.8,29.54,West,262,0.0,4.0,80,0.00,,,0.00,WeatherCatV1.10B1784,2013-03-03 19:52:00,
2013-03-03 14:57:00,35.5,29.6,29.54,West,262,3.0,3.0,79,0.00,,,0.00,WeatherCatV1.10B1784,2013-03-03 19:57:00,
2013-03-03 15:02:00,35.6,29.7,29.54,West,262,1.0,4.0,79,0.00,,,0.00,WeatherCatV1.10B1784,2013-03-03 20:02:00,
2013-03-03 15:07:00,35.5,29.3,29.54,West,267,2.0,7.0,78,0.00,,,0.00,WeatherCatV1.10B1784,2013-03-03 20:07:00,
2013-03-03 15:12:00,35.4,29.2,29.54,West,267,0.0,1.0,78,0.00,,,0.00,WeatherCatV1.10B1784,2013-03-03 20:12:00,
2013-03-03 15:17:00,35.4,29.2,29.54,West,262,4.0,4.0,78,0.00,,,0.00,WeatherCatV1.10B1784,2013-03-03 20:17:00,
2013-03-03 15:22:00,35.5,29.3,29.54,West,262,1.0,3.0,78,0.00,,,0.00,WeatherCatV1.10B1784,2013-03-03 20:22:00,
2013-03-03 15:27:00,35.5,29.3,29.54,West,262,2.0,4.0,78,0.00,,,0.00,WeatherCatV1.10B1784,2013-03-03 20:27:00,
2013-03-03 15:32:00,35.5,29.6,29.54,WSW,257,1.0,3.0,79,0.00,,,0.00,WeatherCatV1.10B1784,2013-03-03 20:32:00,
2013-03-03 15:37:00,35.5,29.6,29.55,WSW,257,0.0,1.0,79,0.00,,,0.00,WeatherCatV1.10B1784,2013-03-03 20:37:00,
2013-03-03 15:42:00,35.6,29.7,29.55,WSW,257,0.0,3.0,79,0.00,,,0.00,WeatherCatV1.10B1784,2013-03-03 20:42:00,
2013-03-03 15:48:00,35.5,29.6,29.54,WSW,257,1.0,3.0,79,0.00,,,0.00,WeatherCatV1.10B1784,2013-03-03 20:48:00,
2013-03-03 15:53:00,35.4,29.5,29.54,WSW,257,0.0,5.0,79,0.00,,,0.00,WeatherCatV1.10B1784,2013-03-03 20:53:00,
2013-03-03 15:58:00,35.3,29.1,29.54,West,267,0.0,2.0,78,0.00,,,0.00,WeatherCatV1.10B1784,2013-03-03 20:58:00,
2013-03-03 16:03:00,35.2,29.0,29.55,West,267,0.0,3.0,78,0.00,,,0.00,WeatherCatV1.10B1784,2013-03-03 21:03:00,
2013-03-03 16:08:00,35.3,29.1,29.55,West,267,0.0,2.0,78,0.00,,,0.00,WeatherCatV1.10B1784,2013-03-03 21:08:00,
2013-03-03 16:13:00,35.3,29.1,29.55,NNW,346,0.0,5.0,78,0.00,,,0.00,WeatherCatV1.10B1784,2013-03-03 21:13:00,
2013-03-03 16:18:00,35.4,28.9,29.55,NNW,329,0.0,3.0,77,0.00,,,0.00,WeatherCatV1.10B1784,2013-03-03 21:18:00,
2013-03-03 16:23:00,35.4,28.9,29.55,NNW,329,2.0,5.0,77,0.00,,,0.00,WeatherCatV1.10B1784,2013-03-03 21:23:00,
2013-03-03 16:28:00,35.5,29.0,29.55,NNW,329,1.0,2.0,77,0.00,,,0.00,WeatherCatV1.10B1784,2013-03-03 21:28:00,
2013-03-03 16:33:00,35.5,29.0,29.55,NNW,329,0.0,0.0,77,0.00,,,0.00,WeatherCatV1.10B1784,2013-03-03 21:33:00,
2013-03-03 16:38:00,35.4,28.9,29.55,WNW,292,3.0,5.0,77,0.00,,,0.00,WeatherCatV1.10B1784,2013-03-03 21:38:00,
2013-03-03 16:43:00,35.1,29.3,29.55,WNW,291,0.0,4.0,79,0.00,,,0.00,WeatherCatV1.10B1784,2013-03-03 21:43:00,
2013-03-03 16:48:00,34.8,29.0,29.55,WNW,296,1.0,3.0,79,0.00,,,0.00,WeatherCatV1.10B1784,2013-03-03 21:48:00,
2013-03-03 16:53:00,34.7,28.9,29.56,WNW,302,2.0,4.0,79,0.00,,,0.00,WeatherCatV1.10B1784,2013-03-03 21:53:00,
2013-03-03 16:58:00,34.5,29.0,29.56,WNW,302,2.0,3.0,80,0.00,,,0.00,WeatherCatV1.10B1784,2013-03-03 21:58:00,
2013-03-03 17:03:00,34.4,29.2,29.56,WNW,301,0.0,4.0,81,0.00,,,0.00,WeatherCatV1.10B1784,2013-03-03 22:03:00,
2013-03-03 17:08:00,34.2,29.0,29.56,WNW,301,0.0,2.0,81,0.00,,,0.00,WeatherCatV1.10B1784,2013-03-03 22:08:00,
2013-03-03 17:13:00,34.0,29.1,29.56,WNW,301,4.0,4.0,82,0.00,,,0.00,WeatherCatV1.10B1784,2013-03-03 22:13:00,
2013-03-03 17:18:00,33.7,29.4,29.56,WNW,301,1.0,2.0,84,0.00,,,0.00,WeatherCatV1.10B1784,2013-03-03 22:18:00,
2013-03-03 17:23:00,33.5,29.2,29.56,WNW,301,0.0,0.0,84,0.00,,,0.00,WeatherCatV1.10B1784,2013-03-03 22:23:00,
2013-03-03 17:28:00,33.4,29.1,29.56,WNW,301,0.0,0.0,84,0.00,,,0.00,WeatherCatV1.10B1784,2013-03-03 22:28:00,
2013-03-03 17:33:00,33.3,29.0,29.56,WNW,301,0.0,2.0,84,0.00,,,0.00,WeatherCatV1.10B1784,2013-03-03 22:33:00,
2013-03-03 17:38:00,33.1,29.1,29.56,WNW,301,0.0,3.0,85,0.00,,,0.00,WeatherCatV1.10B1784,2013-03-03 22:38:00,
2013-03-03 17:43:00,32.9,29.2,29.57,NW,304,2.0,5.0,86,0.00,,,0.00,WeatherCatV1.10B1784,2013-03-03 22:43:00,
2013-03-03 17:48:00,32.7,29.0,29.57,NW,304,3.0,3.0,86,0.00,,,0.00,WeatherCatV1.10B1784,2013-03-03 22:48:00,
2013-03-03 17:53:00,32.6,29.2,29.57,WNW,301,3.0,5.0,87,0.00,,,0.00,WeatherCatV1.10B1784,2013-03-03 22:53:00,
2013-03-03 17:58:00,32.4,29.0,29.57,WNW,301,0.0,2.0,87,0.00,,,0.00,WeatherCatV1.10B1784,2013-03-03 22:58:00,
2013-03-03 18:03:00,32.3,29.2,29.57,NW,317,0.0,1.0,88,0.00,,,0.00,WeatherCatV1.10B1784,2013-03-03 23:03:00,
2013-03-03 18:08:00,32.2,29.1,29.57,NW,317,0.0,1.0,88,0.00,,,0.00,WeatherCatV1.10B1784,2013-03-03 23:08:00,
2013-03-03 18:13:00,32.1,29.0,29.57,NW,317,1.0,2.0,88,0.00,,,0.00,WeatherCatV1.10B1784,2013-03-03 23:13:00,
2013-03-03 18:18:00,32.0,28.9,29.57,NW,316,0.0,2.0,88,0.00,,,0.00,WeatherCatV1.10B1784,2013-03-03 23:18:00,
2013-03-03 18:23:00,31.9,29.0,29.58,NW,316,0.0,1.0,89,0.00,,,0.00,WeatherCatV1.10B1784,2013-03-03 23:23:00,
2013-03-03 18:28:00,31.9,29.0,29.58,NW,313,3.0,4.0,89,0.00,,,0.00,WeatherCatV1.10B1784,2013-03-03 23:28:00,
2013-03-03 18:33:00,31.8,28.9,29.57,NW,313,0.0,0.0,89,0.00,,,0.00,WeatherCatV1.10B1784,2013-03-03 23:33:00,
2013-03-03 18:38:00,31.7,28.8,29.58,NW,313,3.0,6.0,89,0.00,,,0.00,WeatherCatV1.10B1784,2013-03-03 23:38:00,
2013-03-03 18:43:00,31.7,28.8,29.58,NW,313,0.0,1.0,89,0.00,,,0.00,WeatherCatV1.10B1784,2013-03-03 23:43:00,
2013-03-03 18:48:00,31.7,28.8,29.58,WNW,301,0.0,4.0,89,0.00,,,0.00,WeatherCatV1.10B1784,2013-03-03 23:48:00,
2013-03-03 18:53:00,31.7,28.8,29.58,WNW,294,0.0,11.0,89,0.00,,,0.00,WeatherCatV1.10B1784,2013-03-03 23:53:00,
2013-03-03 18:58:00,31.6,28.7,29.58,WNW,300,4.0,4.0,89,0.00,,,0.00,WeatherCatV1.10B1784,2013-03-03 23:58:00,
2013-03-03 19:03:00,31.7,28.6,29.58,WNW,300,0.0,0.0,88,0.00,,,0.00,WeatherCatV1.10B1784,2013-03-04 00:03:00,
2013-03-03 19:08:00,31.7,28.6,29.58,NW,304,0.0,1.0,88,0.00,,,0.00,WeatherCatV1.10B1784,2013-03-04 00:08:00,
2013-03-03 19:13:00,31.6,28.2,29.58,NW,307,2.0,6.0,87,0.00,,,0.00,WeatherCatV1.10B1784,2013-03-04 00:13:00,
2013-03-03 19:18:00,31.7,28.3,29.58,NW,313,3.0,7.0,87,0.00,,,0.00,WeatherCatV1.10B1784,2013-03-04 00:18:00,
2013-03-03 19:23:00,31.7,28.0,29.58,NW,313,0.0,4.0,86,0.00,,,0.00,WeatherCatV1.10B1784,2013-03-04 00:23:00,
2013-03-03 19:28:00,31.7,28.0,29.58,WNW,284,3.0,8.0,86,0.00,,,0.00,WeatherCatV1.10B1784,2013-03-04 00:28:00,
2013-03-03 19:33:00,31.7,27.7,29.58,WNW,284,3.0,3.0,85,0.00,,,0.00,WeatherCatV1.10B1784,2013-03-04 00:33:00,
2013-03-03 19:38:00,31.7,27.7,29.58,NNW,335,0.0,3.0,85,0.00,,,0.00,WeatherCatV1.10B1784,2013-03-04 00:38:00,
2013-03-03 19:43:00,31.9,27.3,29.58,WNW,283,2.0,4.0,83,0.00,,,0.00,WeatherCatV1.10B1784,2013-03-04 00:43:00,
2013-03-03 19:48:00,32.0,27.1,29.58,NNW,340,0.0,2.0,82,0.00,,,0.00,WeatherCatV1.10B1784,2013-03-04 00:48:00,
2013-03-03 19:53:00,32.1,26.9,29.58,NNW,340,1.0,4.0,81,0.00,,,0.00,WeatherCatV1.10B1784,2013-03-04 00:53:00,
2013-03-03 19:58:00,32.2,27.0,29.58,NNW,340,2.0,3.0,81,0.00,,,0.00,WeatherCatV1.10B1784,2013-03-04 00:58:00,
2013-03-03 20:03:00,32.2,27.0,29.58,NNW,335,3.0,3.0,81,0.00,,,0.00,WeatherCatV1.10B1784,2013-03-04 01:03:00,
2013-03-03 20:08:00,32.2,26.7,29.59,NNW,335,0.0,2.0,80,0.00,,,0.00,WeatherCatV1.10B1784,2013-03-04 01:08:00,
2013-03-03 20:13:00,32.2,27.0,29.59,NNW,335,4.0,4.0,81,0.00,,,0.00,WeatherCatV1.10B1784,2013-03-04 01:13:00,
2013-03-03 20:18:00,32.3,26.8,29.59,NNW,335,0.0,3.0,80,0.00,,,0.00,WeatherCatV1.10B1784,2013-03-04 01:18:00,
2013-03-03 20:23:00,32.3,26.8,29.59,NNW,335,1.0,2.0,80,0.00,,,0.00,WeatherCatV1.10B1784,2013-03-04 01:23:00,
2013-03-03 20:28:00,32.3,26.8,29.59,NNW,340,3.0,5.0,80,0.00,,,0.00,WeatherCatV1.10B1784,2013-03-04 01:28:00,
2013-03-03 20:33:00,32.3,26.5,29.59,WNW,291,4.0,6.0,79,0.00,,,0.00,WeatherCatV1.10B1784,2013-03-04 01:33:00,
2013-03-03 20:38:00,32.3,26.5,29.59,NNW,334,0.0,4.0,79,0.00,,,0.00,WeatherCatV1.10B1784,2013-03-04 01:38:00,
2013-03-03 20:43:00,32.3,26.5,29.59,NW,308,3.0,7.0,79,0.00,,,0.00,WeatherCatV1.10B1784,2013-03-04 01:43:00,
2013-03-03 20:48:00,32.3,26.5,29.59,NNW,334,4.0,9.0,79,0.00,,,0.00,WeatherCatV1.10B1784,2013-03-04 01:48:00,
2013-03-03 20:53:00,32.2,26.4,29.59,NW,320,2.0,7.0,79,0.00,,,0.00,WeatherCatV1.10B1784,2013-03-04 01:53:00,
2013-03-03 20:58:00,32.1,26.3,29.59,NW,321,4.0,4.0,79,0.00,,,0.00,WeatherCatV1.10B1784,2013-03-04 01:58:00,
2013-03-03 21:03:00,32.1,26.6,29.59,NW,321,3.0,3.0,80,0.00,,,0.00,WeatherCatV1.10B1784,2013-03-04 02:03:00,
2013-03-03 21:08:00,32.0,26.2,29.59,NW,312,3.0,7.0,79,0.00,,,0.00,WeatherCatV1.10B1784,2013-03-04 02:08:00,
2013-03-03 21:13:00,32.0,26.2,29.59,NW,315,4.0,8.0,79,0.00,,,0.00,WeatherCatV1.10B1784,2013-03-04 02:13:00,
2013-03-03 21:18:00,32.0,26.2,29.59,NW,315,1.0,6.0,79,0.00,,,0.00,WeatherCatV1.10B1784,2013-03-04 02:18:00,
2013-03-03 21:23:00,31.9,26.1,29.59,NW,315,4.0,6.0,79,0.00,,,0.00,WeatherCatV1.10B1784,2013-03-04 02:23:00,
2013-03-03 21:28:00,31.9,26.1,29.59,NW,319,2.0,3.0,79,0.00,,,0.00,WeatherCatV1.10B1784,2013-03-04 02:28:00,
2013-03-03 21:33:00,31.8,26.0,29.59,NW,323,2.0,4.0,79,0.00,,,0.00,WeatherCatV1.10B1784,2013-03-04 02:33:00,
2013-03-03 21:38:00,31.8,25.7,29.59,WNW,294,2.0,3.0,78,0.00,,,0.00,WeatherCatV1.10B1784,2013-03-04 02:38:00,
2013-03-03 21:43:00,31.8,26.0,29.59,North,357,0.0,2.0,79,0.00,,,0.00,WeatherCatV1.10B1784,2013-03-04 02:43:00,
2013-03-03 21:48:00,31.7,25.6,29.59,North,354,0.0,3.0,78,0.00,,,0.00,WeatherCatV1.10B1784,2013-03-04 02:48:00,
2013-03-03 21:53:00,31.7,25.6,29.59,North,351,0.0,2.0,78,0.00,,,0.00,WeatherCatV1.10B1784,2013-03-04 02:53:00,
2013-03-03 21:58:00,31.7,25.6,29.59,North,5,2.0,9.0,78,0.00,,,0.00,WeatherCatV1.10B1784,2013-03-04 02:58:00,
2013-03-03 22:03:00,31.7,25.6,29.59,NNW,328,2.0,7.0,78,0.00,,,0.00,WeatherCatV1.10B1784,2013-03-04 03:03:00,
2013-03-03 22:08:00,31.7,25.6,29.59,NNW,337,8.0,8.0,78,0.00,,,0.00,WeatherCatV1.10B1784,2013-03-04 03:08:00,
2013-03-03 22:13:00,31.6,25.5,29.59,NW,317,1.0,3.0,78,0.00,,,0.00,WeatherCatV1.10B1784,2013-03-04 03:13:00,
2013-03-03 22:18:00,31.6,25.5,29.59,WNW,294,6.0,8.0,78,0.00,,,0.00,WeatherCatV1.10B1784,2013-03-04 03:18:00,
2013-03-03 22:23:00,31.6,25.5,29.58,NW,315,2.0,8.0,78,0.00,,,0.00,WeatherCatV1.10B1784,2013-03-04 03:23:00,
2013-03-03 22:28:00,31.5,25.4,29.58,NW,315,1.0,3.0,78,0.00,,,0.00,WeatherCatV1.10B1784,2013-03-04 03:28:00,
2013-03-03 22:33:00,31.5,25.4,29.59,West,267,2.0,3.0,78,0.00,,,0.00,WeatherCatV1.10B1784,2013-03-04 03:33:00,
2013-03-03 22:38:00,31.5,25.4,29.59,North,6,4.0,7.0,78,0.00,,,0.00,WeatherCatV1.10B1784,2013-03-04 03:38:00,
2013-03-03 22:43:00,31.5,25.4,29.59,NNW,340,5.0,7.0,78,0.00,,,0.00,WeatherCatV1.10B1784,2013-03-04 03:43:00,
2013-03-03 22:48:00,31.5,25.4,29.59,NNW,347,2.0,6.0,78,0.00,,,0.00,WeatherCatV1.10B1784,2013-03-04 03:48:00,
2013-03-03 22:53:00,31.5,25.4,29.59,North,349,6.0,8.0,78,0.00,,,0.00,WeatherCatV1.10B1784,2013-03-04 03:53:00,
2013-03-03 22:58:00,31.5,25.4,29.59,WNW,296,1.0,9.0,78,0.00,,,0.00,WeatherCatV1.10B1784,2013-03-04 03:58:00,
2013-03-03 23:03:00,31.5,25.4,29.59,NNE,15,8.0,8.0,78,0.00,,,0.00,WeatherCatV1.10B1784,2013-03-04 04:03:00,
2013-03-03 23:08:00,31.5,25.4,29.59,NW,306,1.0,1.0,78,0.00,,,0.00,WeatherCatV1.10B1784,2013-03-04 04:08:00,
2013-03-03 23:13:00,31.5,25.4,29.59,WNW,297,2.0,7.0,78,0.00,,,0.00,WeatherCatV1.10B1784,2013-03-04 04:13:00,
2013-03-03 23:18:00,31.4,25.3,29.59,North,353,3.0,6.0,78,0.00,,,0.00,WeatherCatV1.10B1784,2013-03-04 04:18:00,
2013-03-03 23:23:00,31.4,25.3,29.59,NW,313,3.0,4.0,78,0.00,,,0.00,WeatherCatV1.10B1784,2013-03-04 04:23:00,
2013-03-03 23:28:00,31.3,25.6,29.59,NNW,332,0.0,2.0,79,0.00,,,0.00,WeatherCatV1.10B1784,2013-03-04 04:28:00,
2013-03-03 23:33:00,31.2,25.5,29.59,NNW,335,3.0,4.0,79,0.00,,,0.00,WeatherCatV1.10B1784,2013-03-04 04:33:00,
2013-03-03 23:38:00,31.2,25.5,29.59,NW,311,2.0,5.0,79,0.00,,,0.00,WeatherCatV1.10B1784,2013-03-04 04:38:00,
2013-03-03 23:43:00,31.2,25.2,29.59,WNW,300,3.0,11.0,78,0.00,,,0.00,WeatherCatV1.10B1784,2013-03-04 04:43:00,
2013-03-03 23:48:00,31.2,25.5,29.58,NNW,334,3.0,7.0,79,0.00,,,0.00,WeatherCatV1.10B1784,2013-03-04 04:48:00,
2013-03-03 23:53:00,31.2,25.5,29.59,NW,319,4.0,6.0,79,0.00,,,0.00,WeatherCatV1.10B1784,2013-03-04 04:53:00,
2013-03-03 23:58:00,31.2,25.5,29.59,NNW,328,2.0,5.0,79,0.00,,,0.00,WeatherCatV1.10B1784,2013-03-04 04:58:00,